www.pogodaiklimat.ru

Погода и климат >> Архив погоды >> Россия >> Ленинградская область >> Сосново


ПОГОДА в Сосново

  • Прогноз погоды в Сосново
  • Монитор погоды в Сосново

АРХИВ ПОГОДЫ в Сосново

Время (UTC), дата Ветер
(напр.,м/с)
 
Видим.   Явления Облачность Т
(С)
Тd
(С)
f
(%)
Тe
(С)
Тes
(С)
Комфортность P
(гПа)
Po
(гПа)
Тmin
(С)
Tmax
(С)
R
(мм)
R24
(мм)
S
(см)
09 12.02 штиль 0 6000 м слаб. ливневой снег 9/9 450 м
[Cb cap]
+1.5 +0.7 94 0 0 997.5 988.8
12 12.02 С 1 50 км в посл. час ливневой снег 10/10 540 м
[Sc]
+0.8 -0.3 92 -1 -1 998.6 989.9
15 12.02 СЗ 2 50 км {ливн. осадки} 9/9 720 м
[Sc]
-1.3 -2.8 90 -5 -5 1001.5 992.8 5
18 12.02 С 1 50 км {ливн. осадки} 9/4 600 м
[Sc Ac trans]
-2.9 -4.6 88 -5 -5 1004.4 995.6 +1.7 3
21 12.02 СВ 3 50 км 3/0
[Ac trans]
-4.5 -6.5 86 -10 -10 1007.0 998.0
00 13.02 З 2 50 км 4/0
[Ci fib]
-6.4 -8.0 88 -11 -11 1008.7 999.7
03 13.02 З 2 50 км ясно -8.3 -9.8 89 -13 -13 1009.2 1000.0 -8.5
06 13.02 ЮЗ 1 50 км 3/0
[Ac trans]
-9.5 -10.3 94 -12 -12 1008.9 999.7 -9.8 48
09 13.02 ЮЗ 2 50 км 10/0
[Ac As]
-5.4 -6.4 93 -10 -9 1009.1 1000.1
12 13.02 ЮЗ 2 50 км 9/4 480 м
[Sc Ac trans]
-2.5 -5.1 82 -6 -6 1009.4 1000.6
15 13.02 ЮЗ 1 50 км 10/10 450 м
[St]
-2.5 -4.1 89 -5 -5 1010.2 1001.4
18 13.02 Ю 2 4000 м слаб. ливневой снег 10/8 420 м
[Cb cap Ac As]
-2.8 -3.8 93 -7 -7 1010.2 1001.4 -1.4 0.0
21 13.02 ЮЗ 3 4000 м слаб. ливневой снег 10/8 420 м
[Cb cap Ac As]
-1.5 -2.6 92 -7 -7 1010.5 1001.7
00 14.02 ЮЗ 3 20 км {ливн. осадки} 10/10 330 м
[St]
-0.7 -1.7 93 -6 -6 1009.8 1001.0
03 14.02 ЮЗ 1 2000 м слаб. ливневой снег 10/10 360 м
[Cb cap]
-0.4 -1.0 96 -3 -3 1010.9 1002.1 -3.6 0.4
06 14.02 З 1 6000 м дымка {ливн. осадки} 10/10 240 м
[St]
-0.1 -0.7 96 -2 -2 1013.2 1004.4 -3.3 0.4 48
09 14.02 З 3 12 км слаб. морось 10/10 210 м
[St]
+0.6 0.0 96 -4 -4 1016.0 1007.1
12 14.02 З 3 50 км {снег, морось} 10/10 360 м
[St]
+1.1 0.0 92 -3 -3 1016.6 1007.7
15 14.02 З 3 50 км 10/10 300 м
[St]
+0.7 -0.7 90 -4 -4 1016.0 1007.1 0.0
18 14.02 ЮЗ 3 50 км 10/0
[Ac As]
+0.7 -2.2 81 -4 -4 1012.2 1003.4 +1.1 0.0
21 14.02 З 6-10
{13}
10 км слаб. дождь 10/10 300 м
[Frnb Ns]
+1.4 0.0 90 -5 -5 1008.6 999.8
00 15.02 З 5
{12}
50 км {дождь} 10/10 300 м
[St]
+1.4 +0.3 92 -4 -4 1007.7 998.9
03 15.02 З 5 50 км 1/0
[Ci fib]
+2.4 +0.5 87 -3 -3 1007.5 998.8 +0.1 0.3
06 15.02 З 6 50 км 8/0
[Ac trans Ci fib]
+2.6 -1.0 77 -3 -3 1008.6 999.9 +0.1 0.3 45
09 15.02 З 5
{11}
50 км 8/0
[Ac trans Ci fib]
+4.1 -1.1 69 -1 0 1008.2 999.5
12 15.02 З 5 50 км 8/0
[Ac trans Cc]
+5.7 -2.6 55 +2 +2 1008.0 999.3
15 15.02 З 3 50 км 4/0
[Ac trans Cc]
+4.5 -3.6 56 +1 +1 1008.5 999.8
18 15.02 З 2 50 км 9/0
[Ac trans]
+2.1 -2.2 73 -1 -1 1009.8 1001.1 +5.9
21 15.02 З 3 50 км 9/0
[Ac trans]
+2.8 -1.7 72 -1 -1 1012.0 1003.4
00 16.02 З 1 50 км 10/0
[Ac As]
+1.4 -2.1 77 -0 -0 1012.9 1004.1
03 16.02 З 2 50 км 3/0
[Ci fib]
-0.8 -2.0 92 -5 -5 1011.7 1002.9 -0.9
06 16.02 ЮЗ 2 50 км 4/3 600 м
[Sc Ci fib]
-0.6 -1.8 92 -4 -4 1009.3 1000.5 -1.4 45
09 16.02 ЮЗ 4 50 км 10/10 400 м
[St]
+1.4 0.0 90 -4 -4 1006.5 997.7
12 16.02 ЮЗ 5
{10}
50 км 3/1 1000 м
[Sc Ci fib]
+4.0 -0.6 72 -1 -0 1002.1 993.5
15 16.02 З 4
{11}
50 км 3/0
[Ci fib]
+2.6 -1.6 74 -2 -2 999.9 991.3
18 16.02 З 4 50 км 9/0
[Ac trans Ci fib]
+1.6 -2.2 76 -3 -3 998.1 989.4 +4.4
21 16.02 З 4 50 км 4/0
[Ac trans]
+2.0 -2.0 75 -3 -3 996.7 988.0
00 17.02 З 5
{10}
50 км ясно +1.5 -2.9 73 -4 -4 995.9 987.2
03 17.02 З 5
{12}
50 км ясно +0.3 -5.5 65 -5 -5 996.8 988.1 -0.1
06 17.02 З 5-11
{12}
50 км ясно +0.3 -5.9 63 -5 -5 996.8 988.1 -0.1 42
09 17.02 С 3
{12}
50 км 8/6 1000 м
[Sc Ac trans]
+2.4 -5.4 56 -1 -1 1001.0 992.4
12 17.02 С 3
{16}
50 км 4/4 1000 м
[Sc]
+2.7 -7.5 47 -1 0 1004.4 995.7
15 17.02 С 4
{11}
50 км 1/0
[Ac trans]
+0.6 -9.5 47 -4 -4 1010.0 1001.2
18 17.02 С 1 50 км 9/0
[Ac trans Ci fib]
-2.0 -10.5 52 -4 -4 1014.2 1005.3 +3.0
21 17.02 С 1 50 км 8/0
[Ac trans Ci fib]
-3.5 -11.0 56 -5 -5 1016.7 1007.6
00 18.02 штиль 0 50 км 8/0
[Ac trans Ci fib]
-5.6 -11.7 62 -6 -6 1020.3 1011.2
03 18.02 штиль 0 50 км 8/0
[Ac trans Ci fib]
-7.3 -11.2 74 -8 -8 1021.6 1012.5 -8.0
06 18.02 штиль 0 50 км 9/0
[Ac trans Ci sp]
-9.5 -11.1 88 -10 -10 1021.7 1012.4 -9.8 42
09 18.02 штиль 0 50 км 9/6 1000 м
[Sc Ac trans]
-4.4 -9.5 68 -5 -5 1022.6 1013.5
12 18.02 ЮЗ 2 50 км 10/4 600 м
[Sc Ac As]
-2.1 -9.7 56 -5 -5 1021.5 1012.6
15 18.02 Ю 3 50 км 10/3 600 м
[Sc Ac As]
-2.7 -9.7 59 -7 -7 1017.5 1008.6
18 18.02 Ю 5
{10}
50 км 10/3 600 м
[Sc Ac As]
-1.7 -10.0 53 -8 -8 1013.0 1004.2 -1.4
21 18.02 ЮЗ 5
{10}
50 км 10/0
[Ac As]
0.0 -7.7 56 -6 -6 1007.0 998.2
00 19.02 ЮЗ 6-11
{12}
50 км 10/10 630 м
[Sc]
+1.5 -2.3 76 -5 -5 1005.2 996.4
03 19.02 З 5-11
{12}
10 км слаб. морось 10/10 360 м
[St]
+1.5 +0.7 94 -4 -4 1003.1 994.4 -2.7 0.0
06 19.02 З 5
{12}
12 км слаб. морось 10/10 180 м
[St]
+1.4 +0.9 96 -5 -5 1002.4 993.7 -1.7 0.0 41

 

Местоположение метеостанции Сосново (Ленинградская область, Россия): широта 60.55 долгота 30.32 высота над уровнем моря 70 м.

В архиве по умолчанию представлена погода в Сосново за последнюю неделю. Архивные данные за месяц целиком и за предыдущие месяцы, начиная с января 2011 года, Вы можете получить, выбрав интересующий диапазон дат из раскрывающегося списка и нажав кнопку "Ввод!".


*Определитесь, кто Вы:
робот инопланетянин человек

Внимание! Время в таблицах - всемирное. Для получения местного времени необходимо прибавить поправку, которая равна 3 ч.

Смотрите также архив погоды в соседних городах и на ближайших метеорологических станциях:

Погода в Рощино (Ленинградская область, Россия) (51 км)
Погода в Лисьем Носу (город Санкт-Петербург, Россия) (62 км)
Погода в Санкт-Петербурге (город Санкт-Петербург, Россия) (65 км)
Погода в Воейково (город Санкт-Петербург, Россия) (70 км)
Погода в Кронштадте (город Санкт-Петербург, Россия) (71 км)
Погода в Ломоносове (город Санкт-Петербург, Россия) (76 км)
Погода в Шлиссельбурге (Ленинградская область, Россия) (79 км)
Погода в Озерках (Ленинградская область, Россия) (82 км)
Погода в Выборге (Ленинградская область, Россия) (89 км)
Погода в Лесогорском (Ленинградская область, Россия) (92 км)

Пояснения к столбцам:

Ветер - указаны скорость ветра в м/с - средняя за 10 мин, порывы в срок и между сроками (в фигурных скобках) и направление, откуда дует ветер: С - северный, СВ - северо-восточный, В - восточный, ЮВ - юго-восточный, Ю - южный, ЮЗ - юго-западный, З - западный, СЗ - северо-западный.
Видимость - горизонтальная дальность видимости в метрах или километрах. При видимости от 1 до 10 км при отсутствии осадков обычно наблюдается дымка, при ухудшении видимости до 1 км и менее - туман. В сухую погоду видимость может ухудшаться дымом, пылью или мглою.
Явления - указаны атмосферные явления, наблюдавшиеся в срок или в последний час перед сроком; фигурными скобками обозначены явления, наблюдавшиеся между сроками (за 1-3 часа до срока); квадратными скобками обозначены град или гололедные отложения с указанием их диаметра в мм.
Облачность - указаны через наклонную черту общая и нижняя облачность в баллах и высота нижней границы облаков в метрах; квадратными скобками обозначены формы облаков: Ci - перистые, Cs - перисто-слоистые, Cc - перисто-кучевые, Ac - высококучевые, As - высокослоистые, Sc - слоисто-кучевые, Ns - слоисто-дождевые, Cu - кучевые, Cb - кучево-дождевые. Подробнее классификацию облаков см. в Атласе облаков (PDF).
T - Температура воздуха - температура, измеренная на высоте 2 м над землей.
Td - Температура точки росы - температура, при понижении до которой содержащийся в воздухе водяной пар достигнет насыщения.
f - Относительная влажность воздуха - влажноcть воздуха, измеренная на высоте 2 м над землей.
Te - Эффективная температура - температура, которую ощущает одетый по сезону человек в тени. Характеристика душности погоды. При расчете учитывается влияние влажности воздуха и скорости ветра на теплоощущения человека.
Tes - Эффективная температура на солнце - температура, которую ощущает человек, с поправкой на солнечный нагрев. Характеристика знойности погоды. Зависит от высоты солнца над горизонтом, облачности и скорости ветра. Ночью, в пасмурную погоду, а также при ветре 12 м/с и более поправка равна нулю.
P - Атмосферное давление - приведенное к уровню моря атмосферное давление.
Po - Атмосферное давление - измеренное на уровне метеостанции атмосферное давление.
Tmin - Минимальная температура - минимум температуры воздуха на высоте 2 м над землей.
Tmax - Максимальная температура - максимум температуры воздуха на высоте 2 м над землей.
R - Количество осадков - Количество выпавших осадков за период времени, мм. При наведении курсора мыши на число - период времени, за который выпало указанное количество осадков.
R24 - Количество осадков - Количество выпавших осадков за 24 часа, мм.
S - Снежный покров - Высота снежного покрова, см. При наведении курсора мыши на число - состояние снежного покрова и степень покрытия местности в баллах.